Weather History for Madisonville, KY

Change the Weather History Date:

Wednesday, November 21, 2012

  Actual Average (KOWB) Record (KOWB)
Temperature  
Mean Temperature 52 °F -  
Max Temperature 64 °F 54 °F 77 °F (1942)
Min Temperature 41 °F 35 °F 15 °F (1937)
Degree Days  
Heating Degree Days 12    
Growing Degree Days 2 (Base 50)    
Moisture  
Dew Point 46 °F    
Average Humidity 81    
Maximum Humidity 100    
Minimum Humidity 52    
Precipitation  
Precipitation 0.00 in - - ()
Sea Level Pressure  
Sea Level Pressure 30.21 in    
Wind  
Wind Speed 3 mph ()    
Max Wind Speed 9 mph    
Max Gust Speed -    
Visibility 7.7 miles    
Events      
Averages and records for this station are not official NWS values.
T = Trace of Precipitation, MM = Missing Value Source: Averaged Metar Reports

Daily Weather History Graph

Daily Weather History Graph

Search for Another Location

Airport:

Trip Planner

Search our weather history database for the weather conditions in past years. The results will help you decide how hot, cold, wet, or windy it might be!

Date:

Astronomy

Nov. 21, 2012 Rise Set
Actual Time 6:35 AM CST 4:35 PM CST
Civil Twilight 6:07 AM CST 5:03 PM CST
Nautical Twilight 5:35 AM CST 5:35 PM CST
Astronomical Twilight 5:04 AM CST 6:06 PM CST
Moon 12:44 PM CST 12:02 AM CST
Length of Visible Light 10h 56m
Length of Day
9h 59m
First Quarter, 62% of the Moon is Illuminated
Nov 21
First Quarter
Nov 28
Full
Dec 6
Last Quarter
Dec 13
New
Dec 19
First Quarter

Hourly Weather History & Observations

Time (CST) Temp. Windchill Dew Point Humidity Pressure Visibility Wind Dir Wind Speed Gust Speed Precip Events Conditions
12:15 AM 52.5 °F - 47.3 °F 82% 30.14 in 10.0 mi North 5.8 mph - N/A   Clear
12:35 AM 50.5 °F - 46.8 °F 87% 30.14 in 10.0 mi North 4.6 mph - N/A   Clear
12:55 AM 51.1 °F - 46.9 °F 86% 30.14 in 10.0 mi North 3.5 mph - N/A   Clear
1:15 AM 48.9 °F - 45.5 °F 88% 30.14 in 10.0 mi NNW 3.5 mph - N/A   Clear
1:35 AM 50.0 °F - 46.2 °F 87% 30.15 in 10.0 mi North 3.5 mph - N/A   Clear
1:55 AM 48.9 °F - 45.7 °F 89% 30.16 in 10.0 mi Calm Calm - N/A   Clear
2:15 AM 49.6 °F - 46.4 °F 89% 30.16 in 10.0 mi Calm Calm - N/A   Clear
2:35 AM 49.3 °F - 46.6 °F 90% 30.17 in 10.0 mi North 3.5 mph - N/A   Clear
2:55 AM 47.8 °F - 45.5 °F 92% 30.17 in 7.0 mi NNW 3.5 mph - N/A   Clear
3:15 AM 48.2 °F - 45.7 °F 91% 30.17 in 7.0 mi North 3.5 mph - N/A   Clear
3:35 AM 47.8 °F - 45.5 °F 92% 30.17 in 7.0 mi North 3.5 mph - N/A   Clear
3:55 AM 47.8 °F - 45.7 °F 92% 30.18 in 7.0 mi Calm Calm - N/A   Clear
4:15 AM 46.9 °F - 45.5 °F 95% 30.19 in 7.0 mi Calm Calm - N/A   Clear
4:35 AM 46.2 °F - 45.0 °F 95% 30.20 in 5.0 mi Calm Calm - N/A   Clear
4:55 AM 45.5 °F 44.2 °F 45.5 °F 100% 30.20 in 4.0 mi North 3.5 mph - N/A   Clear
5:15 AM 45.7 °F 44.4 °F 45.1 °F 98% 30.20 in 7.0 mi North 3.5 mph - N/A   Clear
5:35 AM 44.8 °F - 44.2 °F 98% 30.21 in 5.0 mi Calm Calm - N/A   Clear
5:55 AM 44.6 °F - 44.4 °F 99% 30.21 in 5.0 mi Calm Calm - N/A   Clear
6:15 AM 45.7 °F 42.7 °F 45.0 °F 97% 30.22 in 5.0 mi NW 5.8 mph - N/A   Clear
6:35 AM 46.2 °F 45.0 °F 45.1 °F 96% 30.22 in 5.0 mi NNW 3.5 mph - N/A   Clear
6:55 AM 44.6 °F - 43.2 °F 95% 30.23 in 3.0 mi Calm Calm - N/A   Clear
7:15 AM 45.1 °F 43.7 °F 44.8 °F 99% 30.24 in 3.0 mi NNW 3.5 mph - N/A   Clear
7:35 AM 46.4 °F 45.2 °F 45.5 °F 97% 30.24 in 4.0 mi NNW 3.5 mph - N/A   Clear
7:55 AM 47.7 °F - 46.6 °F 96% 30.25 in 4.0 mi NNW 4.6 mph - N/A   Clear
8:15 AM 50.0 °F - 48.2 °F 94% 30.26 in 4.0 mi Calm Calm - N/A   Clear
8:35 AM 51.6 °F - 49.1 °F 91% 30.26 in 5.0 mi NNE 4.6 mph - N/A   Clear
8:55 AM 52.7 °F - 48.9 °F 87% 30.26 in 5.0 mi NNE 4.6 mph - N/A   Clear
9:15 AM 53.8 °F - 49.1 °F 84% 30.26 in 5.0 mi NE 3.5 mph - N/A   Haze
9:35 AM 55.0 °F - 49.5 °F 81% 30.26 in 7.0 mi NE 3.5 mph - N/A   Clear
9:55 AM 56.8 °F - 49.5 °F 76% 30.26 in 7.0 mi NE 3.5 mph - N/A   Clear
10:15 AM 58.8 °F - 49.6 °F 72% 30.26 in 7.0 mi ENE 6.9 mph - N/A   Clear
10:35 AM 60.1 °F - 48.7 °F 66% 30.26 in 7.0 mi ENE 8.1 mph - N/A   Clear
10:55 AM 61.0 °F - 48.7 °F 64% 30.26 in 7.0 mi North 6.9 mph - N/A   Clear
11:15 AM 61.7 °F - 48.2 °F 61% 30.25 in 7.0 mi North 6.9 mph - N/A   Scattered Clouds
11:35 AM 62.2 °F - 47.3 °F 58% 30.24 in 10.0 mi NNE 5.8 mph - N/A   Clear
11:55 AM 62.2 °F - 46.9 °F 57% 30.24 in 10.0 mi North 5.8 mph - N/A   Clear
12:15 PM 63.1 °F - 47.3 °F 56% 30.23 in 10.0 mi North 9.2 mph - N/A   Clear
12:35 PM 63.1 °F - 46.8 °F 55% 30.23 in 10.0 mi North 6.9 mph - N/A   Clear
12:55 PM 63.5 °F - 45.9 °F 53% 30.22 in 10.0 mi NE 3.5 mph - N/A   Clear
1:15 PM 63.7 °F - 45.5 °F 52% 30.21 in 10.0 mi Calm Calm - N/A   Clear
1:35 PM 63.7 °F - 45.9 °F 52% 30.21 in 10.0 mi ENE 3.5 mph - N/A   Clear
1:55 PM 64.0 °F - 46.2 °F 52% 30.21 in 10.0 mi North 8.1 mph - N/A   Clear
2:15 PM 64.2 °F - 46.2 °F 52% 30.21 in 5.0 mi Calm Calm - N/A   Haze
2:35 PM 64.0 °F - 46.4 °F 53% 30.21 in 10.0 mi Calm Calm - N/A   Clear
2:55 PM 64.0 °F - 46.0 °F 52% 30.21 in 10.0 mi Calm Calm - N/A   Clear
3:15 PM 63.7 °F - 46.9 °F 54% 30.21 in 10.0 mi Calm Calm - N/A   Clear
3:35 PM 62.8 °F - 47.8 °F 58% 30.21 in 10.0 mi North 3.5 mph - N/A   Clear
3:55 PM 61.7 °F - 47.5 °F 60% 30.21 in 10.0 mi ENE 3.5 mph - N/A   Clear
4:15 PM 61.2 °F - 46.6 °F 59% 30.21 in 10.0 mi Calm Calm - N/A   Clear
4:35 PM 59.2 °F - 46.2 °F 62% 30.21 in 10.0 mi Calm Calm - N/A   Clear
4:55 PM 56.7 °F - 45.7 °F 67% 30.21 in 10.0 mi Calm Calm - N/A   Clear
5:15 PM 56.1 °F - 46.4 °F 70% 30.21 in 10.0 mi Calm Calm - N/A   Clear
5:35 PM 54.3 °F - 45.7 °F 73% 30.21 in 10.0 mi Calm Calm - N/A   Clear
6:15 PM 53.8 °F - 45.7 °F 74% 30.22 in 10.0 mi Calm Calm - N/A   Clear
6:35 PM 51.1 °F - 44.8 °F 79% 30.21 in 10.0 mi Calm Calm - N/A   Clear
6:55 PM 50.5 °F - 45.0 °F 81% 30.21 in 10.0 mi Calm Calm - N/A   Clear
7:15 PM 50.0 °F - 44.6 °F 82% 30.21 in 10.0 mi Calm Calm - N/A   Clear
7:35 PM 47.5 °F - 43.3 °F 86% 30.21 in 10.0 mi Calm Calm - N/A   Clear
7:55 PM 48.2 °F - 44.8 °F 88% 30.22 in 10.0 mi Calm Calm - N/A   Clear
8:15 PM 45.9 °F - 42.8 °F 89% 30.22 in 7.0 mi Calm Calm - N/A   Clear
8:35 PM 45.1 °F - 42.6 °F 91% 30.21 in 7.0 mi Calm Calm - N/A   Clear
8:55 PM 44.8 °F - 43.0 °F 93% 30.21 in 7.0 mi Calm Calm - N/A   Clear
9:15 PM 44.6 °F - 43.2 °F 95% 30.21 in 7.0 mi Calm Calm - N/A   Clear
9:35 PM 44.2 °F - 42.6 °F 94% 30.21 in 7.0 mi Calm Calm - N/A   Clear
9:55 PM 44.1 °F - 43.2 °F 97% 30.21 in 7.0 mi Calm Calm - N/A   Clear
10:15 PM 43.0 °F - 41.9 °F 96% 30.21 in 7.0 mi Calm Calm - N/A   Clear
10:35 PM 41.2 °F - 40.1 °F 96% 30.21 in 7.0 mi Calm Calm - N/A   Clear
10:55 PM 41.2 °F - 40.3 °F 97% 30.21 in 7.0 mi Calm Calm - N/A   Clear
11:15 PM 41.4 °F - 40.3 °F 96% 30.21 in 7.0 mi Calm Calm - N/A   Clear
11:35 PM 41.9 °F - 41.9 °F 100% 30.21 in 2.5 mi Calm Calm - N/A   Clear
11:55 PM 41.0 °F - 41.0 °F 100% 30.21 in 1.2 mi Calm Calm - N/A   Mist